When you browse on this site, cookies collect data to enhance your experience and personalize the content and advertising you see.
Visit our Privacy Policy to learn more. By continuing to use the site, you agree to this use of cookies and data.
  • In Italy
  • List of Countries
  • For 7 days
  • Water Temperature
  • Satellite Maps
  • Weather Map
  • Weather Widgets
  • user-avatar
    Login

    Hourly Weather San Juan

    Today, 15 December, Saturday

    Time Temperature Precipitation Wind Pressure Humidity
    00:00 +25°C° 0 mm 3 mps 707 mmHg 25%
    01:00 +24°C° 0 mm 2 mps 707 mmHg 26%
    02:00 +24°C° 0 mm 2 mps 707 mmHg 27%
    03:00 +23°C° 0 mm 2 mps 707 mmHg 28%
    04:00 +23°C° 0 mm 1 mps 706 mmHg 30%
    05:00 +24°C° 0 mm 1 mps 707 mmHg 30%
    06:00 +25°C° 0 mm 1 mps 707 mmHg 31%
    07:00 +26°C° 0 mm 1 mps 707 mmHg 32%
    08:00 +27°C° 0 mm 2 mps 707 mmHg 30%
    09:00 +29°C° 0 mm 2 mps 707 mmHg 29%
    10:00 +30°C° 0 mm 3 mps 706 mmHg 27%
    11:00 +31°C° 0 mm 3 mps 706 mmHg 25%
    12:00 +33°C° 0 mm 3 mps 705 mmHg 23%
    13:00 +35°C° 0 mm 3 mps 705 mmHg 21%
    14:00 +35°C° 0 mm 3 mps 704 mmHg 20%
    15:00 +35°C° 0 mm 3 mps 704 mmHg 20%
    16:00 +35°C° 0 mm 3 mps 704 mmHg 19%
    17:00 +34°C° 0 mm 3 mps 704 mmHg 20%
    18:00 +33°C° 0 mm 3 mps 704 mmHg 21%
    19:00 +33°C° 0 mm 3 mps 705 mmHg 22%
    20:00 +32°C° 0 mm 4 mps 705 mmHg 22%
    21:00 +30°C° 0 mm 4 mps 706 mmHg 23%
    22:00 +29°C° 0 mm 4 mps 706 mmHg 23%
    23:00 +29°C° 0 mm 4 mps 706 mmHg 25%

    Tomorrow, 16 December, Sunday

    Time Temperature Precipitation Wind Pressure Humidity
    00:00 +28°C° 0 mm 3 mps 706 mmHg 27%
    01:00 +27°C° 0 mm 3 mps 705 mmHg 29%
    02:00 +27°C° 0 mm 3 mps 705 mmHg 30%
    03:00 +27°C° 0 mm 3 mps 705 mmHg 31%
    04:00 +26°C° 0 mm 3 mps 705 mmHg 32%
    05:00 +28°C° 0 mm 2 mps 705 mmHg 29%
    06:00 +29°C° 0 mm 2 mps 705 mmHg 26%
    07:00 +30°C° 0 mm 2 mps 705 mmHg 22%
    08:00 +31°C° 0 mm 2 mps 705 mmHg 20%
    09:00 +34°C° 0 mm 2 mps 705 mmHg 18%
    10:00 +35°C° 0 mm 2 mps 705 mmHg 16%
    11:00 +36°C° 0 mm 2 mps 704 mmHg 14%
    12:00 +37°C° 0 mm 3 mps 704 mmHg 13%
    13:00 +38°C° 0 mm 3 mps 703 mmHg 12%
    14:00 +38°C° 0 mm 3 mps 702 mmHg 11%
    15:00 +39°C° 0 mm 3 mps 702 mmHg 11%
    16:00 +39°C° 0 mm 3 mps 702 mmHg 11%
    17:00 +38°C° 0 mm 3 mps 702 mmHg 12%
    18:00 +37°C° 0 mm 3 mps 702 mmHg 13%
    19:00 +36°C° 0 mm 2 mps 703 mmHg 15%
    20:00 +35°C° 0 mm 3 mps 703 mmHg 17%
    21:00 +34°C° 0 mm 3 mps 703 mmHg 19%
    22:00 +34°C° 0 mm 3 mps 704 mmHg 21%
    23:00 +32°C° 0 mm 2 mps 703 mmHg 24%

    Day after tomorrow, 17 December, Monday

    Time Temperature Precipitation Wind Pressure Humidity
    00:00 +31°C° 0 mm 2 mps 703 mmHg 28%
    01:00 +30°C° 0 mm 2 mps 703 mmHg 31%
    02:00 +29°C° 0 mm 4 mps 703 mmHg 33%
    03:00 +29°C° 0 mm 5 mps 703 mmHg 35%
    04:00 +28°C° 0 mm 7 mps 704 mmHg 37%
    05:00 +28°C° 0 mm 8 mps 704 mmHg 35%
    06:00 +27°C° 0 mm 8 mps 705 mmHg 32%
    07:00 +27°C° 0 mm 9 mps 706 mmHg 29%
    08:00 +28°C° 0 mm 9 mps 706 mmHg 28%
    09:00 +29°C° 0 mm 8 mps 706 mmHg 27%
    10:00 +31°C° 0 mm 8 mps 706 mmHg 25%
    11:00 +32°C° 0 mm 8 mps 706 mmHg 24%
    12:00 +33°C° 0 mm 8 mps 705 mmHg 23%
    13:00 +33°C° 0 mm 8 mps 705 mmHg 22%
    14:00 +33°C° 0 mm 8 mps 704 mmHg 24%
    15:00 +33°C° 0 mm 8 mps 704 mmHg 25%
    16:00 +32°C° 0 mm 9 mps 704 mmHg 27%
    17:00 +31°C° 0 mm 8 mps 705 mmHg 30%
    18:00 +29°C° 0 mm 8 mps 705 mmHg 34%
    19:00 +28°C° 0 mm 7 mps 706 mmHg 37%
    20:00 +27°C° 0 mm 7 mps 707 mmHg 43%
    21:00 +26°C° 0 mm 6 mps 707 mmHg 48%
    22:00 +24°C° 0 mm 6 mps 708 mmHg 54%
    23:00 +25°C° 0 mm 5 mps 708 mmHg 57%

    18 December, Tuesday

    Time Temperature Precipitation Wind Pressure Humidity
    00:00 +23°C° 0 mm 5 mps 708 mmHg 60%
    01:00 +22°C° 0 mm 5 mps 707 mmHg 64%
    02:00 +22°C° 0 mm 4 mps 707 mmHg 65%
    03:00 +22°C° 0 mm 4 mps 707 mmHg 66%
    04:00 +21°C° 0 mm 3 mps 707 mmHg 68%
    05:00 +22°C° 0 mm 3 mps 708 mmHg 64%
    06:00 +24°C° 0 mm 3 mps 708 mmHg 59%
    07:00 +25°C° 0 mm 3 mps 708 mmHg 55%
    08:00 +26°C° 0 mm 2 mps 708 mmHg 49%
    09:00 +27°C° 0 mm 2 mps 708 mmHg 43%
    10:00 +29°C° 0 mm 2 mps 707 mmHg 38%
    11:00 +30°C° 0 mm 2 mps 706 mmHg 34%
    12:00 +31°C° 0 mm 2 mps 706 mmHg 31%
    13:00 +32°C° 0 mm 2 mps 705 mmHg 27%
    14:00 +34°C° 0 mm 2 mps 705 mmHg 26%
    15:00 +34°C° 0 mm 2 mps 704 mmHg 25%
    16:00 +35°C° 0 mm 2 mps 704 mmHg 24%
    17:00 +34°C° 0.1 mm 2 mps 704 mmHg 25%
    18:00 +34°C° 0.1 mm 2 mps 704 mmHg 27%
    19:00 +33°C° 0.1 mm 3 mps 705 mmHg 28%
    20:00 +31°C° 0.1 mm 3 mps 705 mmHg 33%
    21:00 +30°C° 0.1 mm 3 mps 705 mmHg 38%
    22:00 +29°C° 0.1 mm 4 mps 705 mmHg 42%
    23:00 +29°C° 0.1 mm 4 mps 705 mmHg 45%

    19 December, Wednesday

    Time Temperature Precipitation Wind Pressure Humidity
    00:00 +29°C° 0.1 mm 4 mps 704 mmHg 49%
    01:00 +28°C° 0.1 mm 4 mps 704 mmHg 52%
    02:00 +28°C° 0 mm 4 mps 703 mmHg 51%
    03:00 +27°C° 0 mm 3 mps 703 mmHg 50%
    04:00 +27°C° 0 mm 3 mps 703 mmHg 49%
    05:00 +28°C° 0 mm 3 mps 703 mmHg 46%
    06:00 +29°C° 0 mm 3 mps 703 mmHg 42%
    07:00 +30°C° 0 mm 3 mps 703 mmHg 39%
    08:00 +33°C° 0.2 mm 3 mps 703 mmHg 35%
    09:00 +34°C° 0.2 mm 3 mps 703 mmHg 31%
    10:00 +35°C° 0.2 mm 3 mps 703 mmHg 27%
    11:00 +36°C° 0.1 mm 3 mps 702 mmHg 24%
    12:00 +37°C° 0.1 mm 3 mps 702 mmHg 22%
    13:00 +38°C° 0.1 mm 4 mps 702 mmHg 19%
    14:00 +38°C° 0.3 mm 4 mps 701 mmHg 22%
    15:00 +37°C° 0.3 mm 4 mps 701 mmHg 24%
    16:00 +36°C° 0.3 mm 4 mps 701 mmHg 26%
    17:00 +35°C° 0.6 mm 4 mps 702 mmHg 30%
    18:00 +33°C° 0.6 mm 5 mps 702 mmHg 34%
    19:00 +32°C° 0.6 mm 6 mps 703 mmHg 39%
    20:00 +30°C° 1 mm 6 mps 704 mmHg 43%
    21:00 +29°C° 1 mm 5 mps 704 mmHg 48%
    22:00 +28°C° 1 mm 5 mps 705 mmHg 52%
    23:00 +28°C° 0.7 mm 5 mps 706 mmHg 52%

    20 December, Thursday

    Time Temperature Precipitation Wind Pressure Humidity
    00:00 +27°C° 0.7 mm 4 mps 706 mmHg 52%
    01:00 +27°C° 0.7 mm 4 mps 706 mmHg 52%
    02:00 +27°C° 0.2 mm 4 mps 706 mmHg 49%
    03:00 +27°C° 0.2 mm 3 mps 707 mmHg 47%
    04:00 +27°C° 0.2 mm 3 mps 707 mmHg 44%
    05:00 +27°C° 0.2 mm 3 mps 707 mmHg 42%
    06:00 +28°C° 0.2 mm 4 mps 708 mmHg 39%
    07:00 +28°C° 0.2 mm 4 mps 708 mmHg 37%
    08:00 +29°C° 0.1 mm 4 mps 708 mmHg 35%
    09:00 +30°C° 0.1 mm 4 mps 708 mmHg 33%
    10:00 +32°C° 0.1 mm 4 mps 707 mmHg 30%
    11:00 +33°C° 0 mm 4 mps 707 mmHg 29%
    12:00 +33°C° 0 mm 3 mps 706 mmHg 27%
    13:00 +34°C° 0 mm 3 mps 705 mmHg 25%
    14:00 +34°C° 0.1 mm 3 mps 705 mmHg 25%
    15:00 +34°C° 0.1 mm 3 mps 704 mmHg 25%
    16:00 +34°C° 0.1 mm 3 mps 704 mmHg 25%
    17:00 +34°C° 0.3 mm 2 mps 704 mmHg 27%
    18:00 +32°C° 0.3 mm 2 mps 704 mmHg 28%
    19:00 +31°C° 0.3 mm 2 mps 704 mmHg 30%
    20:00 +31°C° 0.3 mm 2 mps 705 mmHg 31%
    21:00 +30°C° 0.3 mm 3 mps 705 mmHg 32%
    22:00 +30°C° 0.3 mm 3 mps 705 mmHg 34%
    23:00 +29°C° 0.1 mm 3 mps 704 mmHg 37%
    Show more